Location: Dompnac
(44.5644°N, 4.1026°E)
Time: 16:40:21
(UTC+00:00)

Cosmos 1634 Rocket - Pass Details

Date: 19 January 2021
Orbit: 961 x 991 km, 82.9° (Epoch: 05 March)

Event Time Altitude Azimuth Distance (km) Brightness Sun altitude
Rises 05:05:29 0° 151° (SSE) 3,633 7.5 -22.6°
Reaches altitude 10° 05:08:21 10° 139° (SE) 2,690 6.9 -22.1°
Maximum altitude 05:13:20 27° 85° (E) 1,776 6.1 -21.2°
Drops below altitude 10° 05:18:19 10° 30° (NNE) 2,706 6.6 -20.4°
Sets 05:21:12 0° 19° (NNE) 3,660 7.1 -19.8°
